Time,TemperatureF,DewpointF,PressureIn,WindDirection,WindDirectionDegrees,WindSpeedMPH,WindSpeedGustMPH,Humidity,HourlyPrecipIn,Conditions,Clouds,dailyrainin,SoftwareType,DateUTC
2014-04-24 00:13:00,51.0,34.0,30.06,North,11,0.0,0.0,52,0.00,,,0.00,,2014-04-24 04:13:00,
2014-04-24 00:23:00,51.0,35.0,30.07,North,11,0.0,0.0,54,0.00,,,0.00,,2014-04-24 04:23:00,
2014-04-24 00:43:00,50.0,35.0,30.07,North,11,0.0,1.0,57,0.00,,,0.00,,2014-04-24 04:43:00,
2014-04-24 00:53:00,50.0,37.0,30.07,NNE,17,0.0,1.0,61,0.00,,,0.00,,2014-04-24 04:53:00,
2014-04-24 01:13:00,50.0,37.0,30.07,NNE,17,0.0,1.0,61,0.00,,,0.00,,2014-04-24 05:13:00,
2014-04-24 01:23:00,50.0,36.0,30.07,NNE,17,0.0,0.0,59,0.00,,,0.00,,2014-04-24 05:23:00,
2014-04-24 01:52:00,51.0,34.0,30.06,NNW,336,0.0,2.0,53,0.00,,,0.00,,2014-04-24 05:52:00,
2014-04-24 02:12:00,52.0,35.0,30.06,NNW,336,0.0,3.0,53,0.00,,,0.00,,2014-04-24 06:12:00,
2014-04-24 02:22:00,52.0,35.0,30.05,NNW,338,0.0,3.0,52,0.00,,,0.00,,2014-04-24 06:22:00,
2014-04-24 02:43:00,51.0,34.0,30.03,East,82,1.0,6.0,53,0.00,,,0.00,,2014-04-24 06:43:00,
2014-04-24 02:52:00,51.0,35.0,30.03,NE,50,1.0,5.0,54,0.00,,,0.00,,2014-04-24 06:52:00,
2014-04-24 03:12:00,51.0,34.0,30.04,NNW,348,1.0,5.0,53,0.00,,,0.00,,2014-04-24 07:12:00,
2014-04-24 03:22:00,51.0,34.0,30.04,NE,40,2.0,7.0,53,0.00,,,0.00,,2014-04-24 07:22:00,
2014-04-24 03:42:00,51.0,35.0,30.05,NE,54,1.0,6.0,54,0.00,,,0.00,,2014-04-24 07:42:00,
2014-04-24 03:52:00,51.0,34.0,30.04,ENE,65,0.0,2.0,53,0.00,,,0.00,,2014-04-24 07:52:00,
2014-04-24 04:11:00,51.0,35.0,30.04,NNE,26,0.0,2.0,54,0.00,,,0.00,,2014-04-24 08:11:00,
2014-04-24 04:22:00,51.0,35.0,30.05,SSW,196,0.0,3.0,54,0.00,,,0.00,,2014-04-24 08:22:00,
2014-04-24 04:42:00,50.0,34.0,30.04,NNE,31,0.0,4.0,54,0.00,,,0.00,,2014-04-24 08:42:00,
2014-04-24 04:52:00,50.0,34.0,30.05,SSW,198,0.0,3.0,55,0.00,,,0.00,,2014-04-24 08:52:00,
2014-04-24 05:02:00,50.0,34.0,30.05,SSW,198,0.0,3.0,55,0.00,,,0.00,,2014-04-24 09:02:00,
2014-04-24 05:12:00,50.0,34.0,30.05,SSW,198,0.0,3.0,55,0.00,,,0.00,,2014-04-24 09:12:00,
2014-04-24 05:22:00,50.0,35.0,30.05,SE,132,0.0,6.0,56,0.00,,,0.00,,2014-04-24 09:22:00,
2014-04-24 05:43:00,50.0,34.0,30.06,East,96,1.0,5.0,55,0.00,,,0.00,,2014-04-24 09:43:00,
2014-04-24 05:54:00,49.0,34.0,30.06,East,97,0.0,2.0,56,0.00,,,0.00,,2014-04-24 09:54:00,
2014-04-24 06:13:00,49.0,34.0,30.06,East,96,0.0,1.0,57,0.00,,,0.00,,2014-04-24 10:13:00,
2014-04-24 06:23:00,49.0,35.0,30.07,East,96,0.0,2.0,58,0.00,,,0.00,,2014-04-24 10:23:00,
2014-04-24 06:43:00,49.0,35.0,30.07,East,90,1.0,6.0,58,0.00,,,0.00,,2014-04-24 10:43:00,
2014-04-24 06:54:00,49.0,35.0,30.07,East,92,2.0,7.0,58,0.00,,,0.00,,2014-04-24 10:54:00,
2014-04-24 07:12:00,49.0,34.0,30.08,ESE,103,2.0,8.0,57,0.00,,,0.00,,2014-04-24 11:12:00,
2014-04-24 07:22:00,48.0,34.0,30.08,East,97,0.0,7.0,57,0.00,,,0.00,,2014-04-24 11:22:00,
2014-04-24 07:42:00,48.0,34.0,30.09,NE,39,2.0,6.0,57,0.00,,,0.00,,2014-04-24 11:42:00,
2014-04-24 07:52:00,48.0,34.0,30.10,East,95,0.0,6.0,58,0.00,,,0.00,,2014-04-24 11:52:00,
2014-04-24 08:12:00,48.0,34.0,30.09,NE,36,0.0,5.0,58,0.00,,,0.00,,2014-04-24 12:12:00,
2014-04-24 08:22:00,48.0,33.0,30.10,ENE,77,0.0,8.0,56,0.00,,,0.00,,2014-04-24 12:22:00,
2014-04-24 08:42:00,48.0,33.0,30.10,East,79,1.0,7.0,55,0.00,,,0.00,,2014-04-24 12:42:00,
2014-04-24 08:52:00,49.0,34.0,30.11,ESE,115,0.0,7.0,55,0.00,,,0.00,,2014-04-24 12:52:00,
2014-04-24 09:12:00,49.0,34.0,30.10,NNE,30,0.0,4.0,56,0.00,,,0.00,,2014-04-24 13:12:00,
2014-04-24 09:22:00,49.0,34.0,30.10,NE,36,2.0,6.0,56,0.00,,,0.00,,2014-04-24 13:22:00,
2014-04-24 09:42:00,50.0,34.0,30.09,ENE,67,3.0,8.0,53,0.00,,,0.00,,2014-04-24 13:42:00,
2014-04-24 09:52:00,51.0,33.0,30.09,East,87,3.0,9.0,50,0.00,,,0.00,,2014-04-24 13:52:00,
2014-04-24 10:12:00,51.0,31.0,30.09,NE,53,3.0,11.0,46,0.00,,,0.00,,2014-04-24 14:12:00,
2014-04-24 10:22:00,52.0,30.0,30.09,North,9,5.0,11.0,42,0.00,,,0.00,,2014-04-24 14:22:00,
2014-04-24 10:32:00,52.0,30.0,30.09,North,9,5.0,11.0,42,0.00,,,0.00,,2014-04-24 14:32:00,
2014-04-24 10:42:00,52.0,30.0,30.09,North,9,5.0,11.0,42,0.00,,,0.00,,2014-04-24 14:42:00,
2014-04-24 10:52:00,54.0,26.0,30.08,East,98,6.0,12.0,34,0.00,,,0.00,,2014-04-24 14:52:00,
2014-04-24 11:12:00,54.0,25.0,30.07,NNE,19,2.0,7.0,32,0.00,,,0.00,,2014-04-24 15:12:00,
2014-04-24 11:22:00,55.0,24.0,30.08,NNE,31,2.0,7.0,30,0.00,,,0.00,,2014-04-24 15:22:00,
2014-04-24 11:44:00,56.0,26.0,30.08,East,80,2.0,5.0,31,0.00,,,0.00,,2014-04-24 15:44:00,
2014-04-24 11:54:00,55.0,25.0,30.07,ESE,104,2.0,10.0,31,0.00,,,0.00,,2014-04-24 15:54:00,
2014-04-24 12:13:00,56.0,24.0,30.07,South,169,1.0,10.0,29,0.00,,,0.00,,2014-04-24 16:13:00,
2014-04-24 12:23:00,57.0,25.0,30.06,NNW,337,3.0,9.0,29,0.00,,,0.00,,2014-04-24 16:23:00,
2014-04-24 12:43:00,58.0,24.0,30.05,South,173,4.0,10.0,27,0.00,,,0.00,,2014-04-24 16:43:00,
2014-04-24 12:54:00,58.0,24.0,30.04,East,99,4.0,10.0,27,0.00,,,0.00,,2014-04-24 16:54:00,
2014-04-24 13:12:00,59.0,26.0,30.03,NE,44,2.0,8.0,28,0.00,,,0.00,,2014-04-24 17:12:00,
2014-04-24 13:22:00,59.0,23.0,30.02,ESE,109,4.0,11.0,25,0.00,,,0.00,,2014-04-24 17:22:00,
2014-04-24 13:52:00,61.0,25.0,30.00,ESE,111,2.0,8.0,25,0.00,,,0.00,,2014-04-24 17:52:00,
2014-04-24 14:12:00,61.0,26.0,29.99,NNE,30,2.0,11.0,26,0.00,,,0.00,,2014-04-24 18:12:00,
2014-04-24 14:22:00,62.0,26.0,29.98,ENE,61,4.0,8.0,25,0.00,,,0.00,,2014-04-24 18:22:00,
2014-04-24 14:43:00,63.0,26.0,29.97,SW,234,1.0,7.0,24,0.00,,,0.00,,2014-04-24 18:43:00,
2014-04-24 14:52:00,64.0,25.0,29.97,SSE,153,2.0,9.0,23,0.00,,,0.00,,2014-04-24 18:52:00,
2014-04-24 15:12:00,63.0,27.0,29.96,ENE,75,1.0,11.0,25,0.00,,,0.00,,2014-04-24 19:12:00,
2014-04-24 15:22:00,65.0,26.0,29.95,North,5,4.0,8.0,23,0.00,,,0.00,,2014-04-24 19:22:00,